(343194) = 2009 VY20 = 2004 DS6 = 1999 TT298

Discovered at Mount Lemmon on 2009-11-09 by Mt. Lemmon Survey.

Orbit

Orbit type: Main Belt

Note: WebGL enabled browser required.

epoch2023-02-25.0
epoch JD2460000.5
perihelion date2023-01-22.10372
perihelion JD2459966.60372
argument of perihelion (°)95.41910
ascending node (°)350.60564
inclination (°)4.78162
eccentricity0.1324703
perihelion distance (AU)1.8987066
Tisserand w.r.t. Jupiter3.7
ΔV w.r.t. Earth (km/sec)8.6
semimajor axis (AU)2.1886360
mean anomaly (°)10.31800
mean daily motion (°/day)0.30439920
aphelion distance (AU)2.479
period (years)3.24
P-vector [x]0.06876020
P-vector [y]0.87912860
P-vector [z]0.47159827
Q-vector [x]-0.99754042
Q-vector [y]0.06703411
Q-vector [z]0.02048243
absolute magnitude18.2
phase slope0.15
uncertainty0
referenceMPEC 2023-C84
observations used243
oppositions11
arc length (days)8532
first opposition used1999
last opposition used2023
residual rms (arc-secs)0.66
perturbers coarse indicatorM-v
perturbers precise indicator003Ek
first observation date used1999-10-02.0
last observation date used2023-02-10.0
computer nameMPCLINUX
JD of orbit computation2456819.423463
perihelion JD uncertainty (days)1.1134E-04
argument of perihelion uncertainty (°)6.7382E-05
ascending node uncertainty (°)5.6772E-05
inclination uncertainty (°)7.8116E-06
eccentricity uncertainty 3.8719E-08
perihelion distance uncertainty (AU)8.5582E-08
Minimum Orbit Intersection Distances (in AU)
for orbit epoch: 2460000.5, reference: E2023-C84
Mercury1.59022
Venus1.18193
Earth0.92105
Mars0.30895
Jupiter2.7039
Saturn7.17308
Uranus16.2714
Neptune27.7291

Observations

249 total observations over interval: 1999 10 02.30445 – 2023 02 10.198153
These data are available for download (format description).

Date (UT) J2000 RA J2000 Dec Magn Location Ref
1999 10 02.30445 23 30 19.46 -01 39 40.9 19.9 V 691 – Steward Observatory, Kitt Peak-Spacewatch MPS 16579
1999 10 02.33342 23 30 17.71 -01 39 46.8 20.0 V 691 – Steward Observatory, Kitt Peak-Spacewatch MPS 16579
1999 10 02.36329 23 30 15.88 -01 39 52.7 19.9 V 691 – Steward Observatory, Kitt Peak-Spacewatch MPS 16579
1999 10 10.09709 23 23 21.20 -02 02 35.2 20.5 V 691 – Steward Observatory, Kitt Peak-Spacewatch MPS 16579
1999 10 10.11928 23 23 20.10 -02 02 38.6 20.7 V 691 – Steward Observatory, Kitt Peak-Spacewatch MPS 16579
1999 10 10.14152 23 23 18.98 -02 02 42.1 20.1 V 691 – Steward Observatory, Kitt Peak-Spacewatch MPS 16579
2004 02 16.44742 11 00 43.84 +08 56 40.4 20.8 V 691 – Steward Observatory, Kitt Peak-Spacewatch MPS 100237
2004 02 16.50637 11 00 40.13 +08 56 51.6 20.8 V 691 – Steward Observatory, Kitt Peak-Spacewatch MPS 100237
2004 02 16.53404 11 00 38.41 +08 56 56.9 21.1 V 691 – Steward Observatory, Kitt Peak-Spacewatch MPS 100237
2004 02 18.32884 10 58 48.21 +09 02 51.8 20.3 V 291 – LPL/Spacewatch II MPS 100237
2004 02 18.36235 10 58 46.03 +09 02 58.6 20.4 V 291 – LPL/Spacewatch II MPS 100237
2004 02 18.38600 10 58 44.49 +09 03 03.5 20.4 V 291 – LPL/Spacewatch II MPS 100237
2004 03 14.14544 10 32 10.22 +10 17 45.8 21.4 V 691 – Steward Observatory, Kitt Peak-Spacewatch MPS 339061
2004 03 14.16112 10 32 09.29 +10 17 48.0 21.4 V 691 – Steward Observatory, Kitt Peak-Spacewatch MPS 339061
2004 03 14.17703 10 32 08.36 +10 17 49.9 21.3 V 691 – Steward Observatory, Kitt Peak-Spacewatch MPS 339061
2006 12 26.32915 07 47 21.53 +30 07 29.1 20.3 V 691 – Steward Observatory, Kitt Peak-Spacewatch MPS 339061
2006 12 26.34648 07 47 20.44 +30 07 31.8 20.3 V 691 – Steward Observatory, Kitt Peak-Spacewatch MPS 339062
2006 12 26.36385 07 47 19.36 +30 07 34.8 20.3 V 691 – Steward Observatory, Kitt Peak-Spacewatch MPS 339062
2009 11 09.37548 03 14 56.97 +26 43 18.9 19.7 V G96 – Mt. Lemmon Survey MPS 302422
2009 11 09.38859 03 14 56.00 +26 43 17.7 19.4 V G96 – Mt. Lemmon Survey MPS 302422
2009 11 09.39620 03 14 55.46 +26 43 17.0 19.4 V G96 – Mt. Lemmon Survey MPS 302422
2009 11 10.35573 03 13 48.93 +26 41 49.1 19.3 V 703 – Catalina Sky Survey MPS 302422
2009 11 10.36289 03 13 48.39 +26 41 49.4 19.5 V 703 – Catalina Sky Survey MPS 302422
2009 11 10.37018 03 13 47.92 +26 41 47.2 19.1 V 703 – Catalina Sky Survey MPS 302422
2009 11 10.37743 03 13 47.28 +26 41 46.3 19.7 V 703 – Catalina Sky Survey MPS 302422
2009 11 16.30146 03 06 51.33 +26 28 51.4 19.7 V G96 – Mt. Lemmon Survey MPS 303470
2009 11 16.30752 03 06 50.90 +26 28 50.2 19.6 V G96 – Mt. Lemmon Survey MPS 303470
2009 11 16.31345 03 06 50.47 +26 28 49.5 19.4 V G96 – Mt. Lemmon Survey MPS 303470
2009 11 16.31929 03 06 50.04 +26 28 48.5 19.5 V G96 – Mt. Lemmon Survey MPS 303470
2010 02 08.213976 03 23 43.39 +24 43 26.5   C51 – WISE MPS 332005
2010 02 08.346280 03 23 55.73 +24 43 49.1   C51 – WISE MPS 332005
2010 02 08.478584 03 24 08.184 +24 44 13.06   C51 – WISE MPS 904122
2010 02 08.610889 03 24 20.654 +24 44 34.22   C51 – WISE MPS 904122
2010 02 08.743321 03 24 33.14 +24 44 56.9   C51 – WISE MPS 332005
2010 02 08.80941 03 24 39.45 +24 45 07.0   C51 – WISE MPS 332005
2010 02 08.875624 03 24 45.60 +24 45 18.1   C51 – WISE MPS 332005
2010 02 08.94171 03 24 51.83 +24 45 29.7   C51 – WISE MPS 332005
2010 02 09.007928 03 24 58.19 +24 45 40.4   C51 – WISE MPS 332005
2010 02 09.074145 03 25 04.438 +24 45 52.99   C51 – WISE MPS 904122
2010 02 09.140233 03 25 10.71 +24 46 05.0   C51 – WISE MPS 332005
2010 02 09.206448 03 25 16.97 +24 46 14.5   C51 – WISE MPS 332005
2010 02 09.471057 03 25 42.13 +24 46 59.5   C51 – WISE MPS 332005
2010 02 09.735793 03 26 07.33 +24 47 45.5   C51 – WISE MPS 332005
2012 09 18.18225 00 19 48.42 +03 54 51.6 20.7 V 691 – Steward Observatory, Kitt Peak-Spacewatch MPS 431969
2012 09 18.19998 00 19 47.40 +03 54 48.4 20.2 V 691 – Steward Observatory, Kitt Peak-Spacewatch MPS 431969
2012 09 18.21770 00 19 46.25 +03 54 45.1 20.7 V 691 – Steward Observatory, Kitt Peak-Spacewatch MPS 431969
2012 09 24.30724 00 13 23.95 +03 34 28.9 20.2 V G96 – Mt. Lemmon Survey MPS 433388
2012 09 24.31241 00 13 23.62 +03 34 27.8 20.3 V G96 – Mt. Lemmon Survey MPS 433388
2012 09 24.31756 00 13 23.26 +03 34 26.9 20.1 V G96 – Mt. Lemmon Survey MPS 433388
2012 09 24.32271 00 13 22.94 +03 34 25.5 19.9 V G96 – Mt. Lemmon Survey MPS 433388
2012 10 04.464926 00 02 32.112 +02 56 52.03 20.2 i F51 – Pan-STARRS 1, Haleakala MPS 434193
2012 10 04.477210 00 02 31.302 +02 56 49.38 20.1 i F51 – Pan-STARRS 1, Haleakala MPS 434193
2012 10 05.26168 00 01 42.74 +02 53 52.1 19.8 V G96 – Mt. Lemmon Survey MPS 434193
2012 10 05.26851 00 01 42.24 +02 53 51.1 19.9 V G96 – Mt. Lemmon Survey MPS 434193
2012 10 05.27536 00 01 41.84 +02 53 50.1 20.2 V G96 – Mt. Lemmon Survey MPS 434193
2012 10 05.28221 00 01 41.41 +02 53 48.3 20.4 V G96 – Mt. Lemmon Survey MPS 434193
2014 04 04.45241 13 36 02.445 -14 41 24.54 20.8 w F51 – Pan-STARRS 1, Haleakala MPS 511013
2014 04 04.46379 13 36 01.703 -14 41 22.21 20.8 w F51 – Pan-STARRS 1, Haleakala MPS 511013
2014 04 04.47512 13 36 00.942 -14 41 20.12 20.8 w F51 – Pan-STARRS 1, Haleakala MPS 511013
2014 04 04.48648 13 36 00.179 -14 41 17.91 20.8 w F51 – Pan-STARRS 1, Haleakala MPS 511013
2014 05 25.28716 12 55 34.001 -11 33 03.35 21.8 w F51 – Pan-STARRS 1, Haleakala MPS 517796
2014 05 25.31135 12 55 33.699 -11 33 01.36 21.8 w F51 – Pan-STARRS 1, Haleakala MPS 517796
2014 05 25.32343 12 55 33.558 -11 33 00.10 22.1 w F51 – Pan-STARRS 1, Haleakala MPS 517796
2015 08 09.47755 22 12 41.713 -15 08 03.50 21.0 r F51 – Pan-STARRS 1, Haleakala MPS 620993
2015 08 09.49052 22 12 40.920 -15 08 06.50 20.8 r F51 – Pan-STARRS 1, Haleakala MPS 620993
2015 08 09.50214 22 12 40.184 -15 08 09.22 20.9 r F51 – Pan-STARRS 1, Haleakala MPS 620993
2015 08 09.51401 22 12 39.473 -15 08 11.91 20.8 r F51 – Pan-STARRS 1, Haleakala MPS 620993
2015 08 10.46425 22 11 43.070 -15 11 45.61 20.9 w F51 – Pan-STARRS 1, Haleakala MPS 620993
2015 08 10.47597 22 11 42.322 -15 11 48.25 20.9 w F51 – Pan-STARRS 1, Haleakala MPS 620993
2015 08 10.48802 22 11 41.564 -15 11 50.88 21.1 w F51 – Pan-STARRS 1, Haleakala MPS 620993
2015 08 11.46806 22 10 42.362 -15 15 32.73 20.8 w F51 – Pan-STARRS 1, Haleakala MPS 620993
2015 08 11.47978 22 10 41.606 -15 15 35.42 20.9 w F51 – Pan-STARRS 1, Haleakala MPS 620993
2015 08 11.49190 22 10 40.847 -15 15 38.12 20.9 w F51 – Pan-STARRS 1, Haleakala MPS 620993
2015 08 11.50377 22 10 40.092 -15 15 40.72 20.7 w F51 – Pan-STARRS 1, Haleakala MPS 620993
2015 08 12.46159 22 09 41.351 -15 19 17.96 20.7 w F51 – Pan-STARRS 1, Haleakala MPS 620993
2015 08 12.47350 22 09 40.583 -15 19 20.54 20.8 w F51 – Pan-STARRS 1, Haleakala MPS 620993
2015 08 12.48541 22 09 39.814 -15 19 23.40 20.8 w F51 – Pan-STARRS 1, Haleakala MPS 620993
2015 08 12.49732 22 09 39.055 -15 19 26.03 20.9 w F51 – Pan-STARRS 1, Haleakala MPS 620993
2015 08 21.40662 22 00 02.858 -15 52 17.27 20.7 w F51 – Pan-STARRS 1, Haleakala MPS 624036
2015 08 21.41779 22 00 02.086 -15 52 19.72 20.7 w F51 – Pan-STARRS 1, Haleakala MPS 624036
2015 08 21.42898 22 00 01.314 -15 52 21.97 20.7 w F51 – Pan-STARRS 1, Haleakala MPS 624036
2015 08 21.44009 22 00 00.544 -15 52 24.27 20.6 w F51 – Pan-STARRS 1, Haleakala MPS 624036
2015 09 06.33871 21 43 08.080 -16 36 28.17 21.1 w F51 – Pan-STARRS 1, Haleakala MPS 626540
2015 09 06.34969 21 43 07.411 -16 36 29.53 21.1 w F51 – Pan-STARRS 1, Haleakala MPS 626540
2015 09 06.36070 21 43 06.748 -16 36 30.59 21.0 w F51 – Pan-STARRS 1, Haleakala MPS 626540
2015 09 06.37167 21 43 06.093 -16 36 32.04 21.1 w F51 – Pan-STARRS 1, Haleakala MPS 626540
2015 10 03.26901 21 27 13.500 -16 33 00.85 21.8 w F51 – Pan-STARRS 1, Haleakala MPS 630991
2015 10 03.28000 21 27 13.368 -16 32 59.24 21.8 w F51 – Pan-STARRS 1, Haleakala MPS 630991
2015 10 03.30195 21 27 13.096 -16 32 56.50 21.8 w F51 – Pan-STARRS 1, Haleakala MPS 630992
2017 01 02.57992 11 39 52.966 +05 11 22.19 21.5 w F51 – Pan-STARRS 1, Haleakala MPS 757435
2017 01 02.58121 11 39 53.014 +05 11 21.86 21.6 w F51 – Pan-STARRS 1, Haleakala MPS 757435
2017 01 02.59168 11 39 53.403 +05 11 18.40 21.9 w F51 – Pan-STARRS 1, Haleakala MPS 757435
